Theta_e
309 310 311 312 313 314 315 316 316 316 317 318 320 325 326 323 328 331 331 331 330 330 328 327 330 333 335 334 334 334 334 334 334 335 336 336 336 336 335 331 327 323 320 319 321 321 320 321 324 325 323 323 324 325 323 321 320 321 326 327 325 327 325 323 321 321 321 319 319 320 323 323 323 321 322 322 321 323 323 326 328 326 326 328 335 338 336 334
308 310 312 312 312 313 315 317 316 316 317 318 319 324 325 323 329 332 330 331 330 330 329 326 330 333 334 333 333 333 333 334 332 333 334 332 334 335 335 332 327 323 320 319 320 321 321 320 321 324 324 323 323 325 324 322 321 322 326 326 325 324 321 320 318 318 319 319 319 319 321 322 322 322 321 322 321 322 323 325 327 328 327 327 335 337 334 334
308 309 312 312 312 313 314 317 317 316 316 316 318 324 325 321 328 331 329 331 330 330 329 326 329 332 333 332 332 332 333 331 327 330 333 330 330 332 333 331 325 320 319 321 321 321 322 322 323 324 324 325 324 324 325 323 322 322 324 326 326 322 319 319 317 317 317 318 319 318 318 319 321 321 322 322 321 322 322 324 325 328 328 328 335 336 334 334
309 309 312 313 313 312 314 317 318 317 315 315 317 322 324 322 329 330 328 331 330 330 329 327 329 330 331 330 330 332 330 325 323 329 333 330 330 329 328 327 325 323 320 320 322 322 323 323 324 325 324 327 326 325 325 323 323 322 322 325 323 320 319 318 316 316 316 317 318 318 318 318 319 320 321 321 321 322 321 322 324 326 328 327 332 335 333 332
309 310 311 313 312 312 314 317 318 317 314 314 316 321 325 323 328 330 327 329 330 329 328 327 329 330 329 328 330 330 327 325 326 331 332 330 331 328 324 323 325 328 322 320 322 321 323 324 324 325 325 328 328 327 326 324 324 323 323 323 319 319 318 316 315 315 315 316 317 317 317 317 318 318 319 320 321 321 320 321 322 323 327 327 329 332 331 330
309 310 311 312 312 312 317 319 317 316 315 314 315 319 324 325 327 330 326 326 329 329 328 328 329 329 328 328 330 329 327 328 328 328 330 330 330 329 325 320 319 323 320 318 322 321 323 324 323 324 325 327 329 328 326 324 325 324 324 322 318 318 317 315 316 316 316 316 317 317 317 316 317 317 318 319 319 320 320 321 320 323 327 327 326 327 327 326
309 310 311 311 312 314 318 319 316 316 316 314 314 317 322 326 328 330 328 326 327 329 328 328 329 329 328 327 328 327 327 328 325 326 330 329 329 327 322 318 316 317 317 319 323 323 323 324 323 324 324 326 328 327 324 322 323 324 325 324 321 319 317 315 316 316 316 316 316 318 318 318 317 317 318 318 319 319 320 320 319 324 329 328 327 325 323 321
309 310 311 310 312 317 318 317 316 315 316 313 314 316 320 325 328 330 329 326 327 329 328 327 329 328 327 326 325 326 327 327 326 326 329 329 328 322 318 318 317 317 319 322 324 324 323 323 323 324 325 326 328 327 323 322 324 324 325 325 322 320 318 316 316 317 317 317 317 318 318 320 319 317 317 317 318 318 318 320 318 324 330 328 327 325 323 322
310 311 311 310 313 318 318 316 315 315 315 313 314 316 319 324 327 329 329 326 326 330 329 327 328 327 325 324 324 327 327 327 326 325 328 330 325 319 317 318 316 317 321 323 324 324 324 324 324 324 326 327 327 326 324 325 326 324 326 325 320 319 320 318 318 319 318 318 318 318 320 322 320 317 317 317 318 318 317 320 318 323 329 326 327 326 324 323
311 311 310 313 315 318 317 315 315 315 315 314 314 316 319 323 326 329 330 326 325 330 329 327 328 324 321 322 324 327 327 325 324 324 326 329 325 319 318 318 317 318 320 322 323 324 324 325 325 325 327 328 327 326 324 326 325 324 326 324 320 320 322 320 319 321 320 318 317 319 322 324 320 316 318 318 318 318 318 320 320 322 325 325 327 328 325 324
311 310 311 316 318 317 317 315 314 314 315 314 315 316 318 324 326 328 329 325 324 329 328 327 326 321 319 322 325 327 326 325 324 323 325 328 326 321 319 319 318 318 319 321 321 323 325 325 325 325 326 327 327 326 324 323 322 324 325 323 321 322 324 322 321 322 322 321 321 320 321 322 319 317 317 319 318 318 318 321 320 321 323 324 327 328 327 327
310 311 313 317 317 317 316 314 313 314 314 313 315 316 317 322 325 328 329 325 324 327 328 327 323 319 320 323 326 326 325 325 323 322 324 326 325 322 320 319 318 318 319 321 321 323 325 325 325 326 326 326 326 326 325 323 322 322 322 323 323 323 324 324 323 323 323 324 322 321 323 323 322 320 319 321 319 318 318 319 321 321 322 323 325 328 327 328
310 313 315 316 316 315 314 313 314 314 314 313 315 316 315 318 323 329 329 325 325 327 328 326 319 318 322 323 325 325 324 324 323 322 323 324 322 321 320 319 319 319 321 322 323 324 325 325 326 326 326 326 325 326 326 324 323 322 322 324 326 326 325 325 325 323 323 323 321 322 326 328 326 324 324 322 319 317 318 319 321 322 322 322 324 327 327 326
311 314 315 314 315 314 314 314 314 314 314 313 314 316 315 317 322 327 328 326 326 329 328 323 318 319 323 323 324 325 324 324 323 322 322 322 323 321 320 319 319 320 321 323 324 324 325 326 326 326 326 325 324 325 325 324 324 324 325 325 327 330 327 324 324 321 320 321 319 322 327 328 326 323 322 321 318 318 318 319 322 322 322 322 323 326 328 326
312 315 315 314 314 313 313 313 313 313 313 313 314 315 316 318 322 326 328 326 326 330 327 320 318 321 323 323 324 324 323 324 323 321 320 321 323 322 321 319 320 322 323 324 325 325 326 326 326 325 323 324 324 324 325 325 325 325 328 328 329 331 326 321 321 320 320 319 317 322 325 327 326 320 318 319 318 318 318 319 320 322 322 322 324 326 328 327
314 315 315 314 313 311 311 311 311 312 313 313 313 315 316 318 323 326 328 326 326 330 324 319 320 321 322 323 323 323 323 324 323 322 320 319 321 321 321 321 322 323 323 324 326 326 326 326 325 324 322 322 323 324 326 327 328 327 329 331 330 330 326 322 320 320 320 318 316 321 323 325 326 320 317 318 317 317 318 318 319 321 321 322 324 326 327 327
314 314 313 312 311 310 310 311 311 312 313 313 312 314 315 317 322 326 328 327 328 328 322 319 320 320 322 323 324 324 324 325 324 322 320 319 320 320 320 321 322 323 323 325 325 325 325 324 323 323 322 322 323 325 328 329 330 329 329 331 330 329 328 325 321 319 318 317 317 320 321 323 324 320 315 316 317 317 317 318 318 319 320 321 323 325 325 325
313 313 311 310 310 310 310 312 313 313 313 313 312 314 315 316 319 324 327 327 327 326 321 319 319 322 324 322 323 324 323 324 323 321 320 320 321 321 321 323 323 324 324 324 325 324 324 322 322 323 323 323 324 325 328 330 330 329 329 330 330 330 329 327 323 319 317 317 318 318 319 320 322 320 317 315 316 317 317 318 318 318 319 321 322 323 324 322
312 312 311 310 309 309 308 310 313 313 312 313 313 314 316 315 314 319 325 327 325 323 321 320 319 323 325 322 322 323 322 323 322 321 320 321 322 323 323 324 324 324 324 325 324 323 322 322 323 325 324 324 325 325 327 329 328 329 329 329 331 330 328 328 322 317 317 318 318 319 319 318 319 320 320 318 317 316 317 317 317 318 318 320 322 322 323 323
312 312 311 309 309 309 310 311 313 313 312 314 315 315 315 314 313 314 319 324 324 321 320 319 320 323 324 322 323 322 322 322 322 321 321 321 322 323 324 324 325 325 325 325 324 322 322 324 325 325 325 324 324 325 325 327 329 329 330 329 330 330 329 327 319 315 317 319 318 319 320 320 320 320 319 320 319 317 317 317 317 317 317 318 320 321 322 322
313 312 310 308 308 311 313 313 313 313 312 314 315 315 314 312 313 313 314 321 324 321 319 318 320 323 322 322 323 322 322 321 321 322 321 321 322 324 324 324 325 326 325 324 323 322 324 326 326 324 325 324 324 325 325 326 328 329 331 330 330 331 330 324 317 315 317 319 320 321 321 321 321 321 320 319 320 319 317 317 317 316 317 317 317 318 319 320
312 312 310 308 308 310 312 313 313 312 312 314 314 314 313 312 313 313 314 319 323 320 319 318 320 322 322 323 323 322 322 321 321 322 322 323 324 324 324 324 325 326 324 323 322 323 325 326 325 323 324 324 324 324 325 326 328 330 331 330 330 331 328 321 316 315 316 318 321 321 321 321 320 321 321 320 320 319 318 317 317 317 317 317 317 317 318 318
311 311 310 309 309 308 309 311 313 312 311 313 314 313 314 313 313 313 313 317 322 321 319 319 321 322 323 324 324 322 321 321 321 322 322 323 324 324 324 324 325 326 323 322 323 325 326 326 324 324 324 324 324 324 325 327 328 331 330 330 330 330 330 325 317 315 315 317 320 319 318 318 318 319 318 318 319 319 320 318 318 318 317 317 317 318 318 318
310 310 309 308 308 308 307 309 313 312 310 311 313 313 314 313 312 312 312 312 318 321 319 319 321 322 324 324 323 322 321 321 322 322 323 323 324 324 324 324 325 326 323 321 323 325 325 325 323 324 324 324 325 325 326 328 329 332 331 331 330 330 331 325 318 316 315 316 317 317 319 320 320 320 319 318 319 319 320 320 319 319 317 317 317 317 318 318
309 309 308 307 307 307 307 309 312 312 310 310 312 313 314 313 312 312 312 311 315 321 320 320 321 323 324 324 323 322 322 322 322 322 322 323 324 323 323 324 325 326 324 322 323 325 325 324 324 324 324 324 326 326 327 329 330 332 332 330 329 330 329 322 318 319 321 323 318 316 324 329 324 322 322 321 320 319 319 319 320 320 318 317 318 317 318 318
309 308 307 308 309 309 308 309 312 312 311 311 311 312 313 312 311 311 311 313 317 321 321 321 323 324 324 324 323 322 323 323 322 322 322 322 323 323 323 324 324 326 324 321 323 325 324 323 324 324 325 326 327 327 328 329 330 331 331 329 328 329 329 325 322 325 328 328 318 314 324 328 324 322 323 323 323 322 320 319 319 320 319 318 317 317 317 317
307 307 307 308 309 310 310 310 311 311 311 311 310 311 312 312 312 311 312 316 319 320 321 321 322 324 324 323 322 322 325 324 322 322 322 323 323 323 323 323 324 325 322 322 325 325 323 323 325 325 325 327 327 328 328 327 329 330 331 331 329 328 330 327 325 327 329 327 320 316 320 323 322 322 322 322 324 324 322 321 320 320 320 319 318 318 318 317
306 306 307 307 307 309 310 310 310 310 311 311 310 310 311 311 312 311 313 319 320 320 321 321 321 323 323 322 322 322 324 323 323 323 322 322 323 322 323 322 323 324 322 323 326 324 322 324 325 325 326 327 327 327 328 327 328 329 330 330 329 328 329 328 327 327 327 328 327 322 319 325 326 324 322 322 322 322 322 322 321 320 320 320 319 319 319 319
306 306 306 306 307 308 308 309 309 309 310 310 310 310 310 311 311 311 313 318 320 320 320 320 320 322 322 322 322 322 322 321 322 322 321 322 323 321 322 322 322 323 322 322 324 324 322 323 324 325 326 326 327 327 327 328 327 326 327 328 328 327 327 328 327 327 327 328 328 325 322 326 329 326 324 324 322 321 320 321 321 320 320 320 319 319 319 319
306 306 306 306 307 307 306 308 308 308 308 308 309 309 309 310 311 313 315 317 318 318 319 320 321 322 322 322 323 322 321 321 322 321 321 322 321 321 322 323 322 323 323 322 322 321 319 320 323 324 325 325 325 326 326 327 325 323 325 326 326 326 325 326 325 327 330 329 327 327 323 323 329 329 325 324 322 321 321 321 320 320 320 320 319 319 319 319
306 306 306 307 307 307 307 308 308 307 308 308 309 309 309 310 312 315 316 316 317 316 317 321 322 322 322 323 324 323 321 321 321 320 320 320 320 321 323 324 324 324 324 323 320 318 320 322 322 322 322 323 325 325 325 325 323 324 326 325 325 325 324 325 323 324 330 330 327 328 325 323 327 328 325 324 322 321 321 321 321 320 320 320 320 319 319 319
306 306 307 308 308 307 308 308 307 308 308 309 309 308 310 311 313 317 316 315 317 315 315 320 322 322 322 323 323 323 322 322 321 319 320 321 320 321 323 324 324 325 325 324 320 319 322 322 322 321 320 322 325 325 323 323 324 325 325 325 327 327 326 328 326 323 328 328 323 325 327 325 325 324 323 323 321 321 321 320 320 320 320 321 320 320 319 318
306 306 307 308 308 308 308 308 307 307 309 309 308 309 311 313 315 317 315 315 317 315 313 317 322 323 322 323 323 322 322 322 321 320 320 321 321 321 324 323 322 324 325 323 321 320 322 322 320 321 321 320 323 324 323 323 323 325 325 326 328 328 328 332 329 327 329 324 318 319 324 326 325 323 321 321 320 320 319 319 320 319 319 319 318 318 318 317
306 307 307 308 308 308 308 307 306 307 308 308 308 309 313 315 315 316 314 313 314 314 314 316 321 324 323 323 323 322 323 322 320 321 321 322 322 323 324 323 321 323 323 322 321 321 324 324 320 320 322 321 322 323 322 322 322 324 325 326 327 327 329 332 330 330 329 322 316 318 324 329 328 325 320 317 317 318 318 318 318 318 318 318 317 317 317 317
307 307 308 308 308 308 307 307 308 308 308 307 307 310 314 316 316 315 314 312 311 312 314 315 319 324 324 323 323 321 322 323 321 321 322 322 323 323 323 323 322 322 322 322 321 320 324 324 319 319 320 320 323 322 320 321 323 323 325 326 327 327 327 329 328 325 325 322 319 320 325 326 323 321 318 316 316 316 316 317 316 316 316 316 317 317 316 316
307 307 307 308 308 308 307 308 308 308 307 307 308 311 313 314 314 314 314 312 312 313 314 315 318 323 326 323 323 322 321 322 322 322 323 323 323 323 322 322 322 321 322 322 321 321 323 322 318 318 319 318 322 321 318 322 324 323 325 326 326 325 324 327 327 321 321 326 324 321 324 322 319 321 322 320 320 317 315 315 314 315 315 314 315 315 315 316
307 307 307 308 308 308 308 308 308 307 306 307 309 311 310 309 310 313 314 313 313 314 315 317 316 319 324 324 323 323 321 322 322 321 322 323 323 322 321 321 321 321 321 321 321 321 322 319 316 317 319 318 318 320 319 321 322 323 325 324 323 325 324 324 326 324 324 327 325 323 324 323 323 326 325 322 321 319 317 316 314 314 314 314 314 313 313 314
307 306 306 307 308 307 307 308 307 307 307 307 310 310 308 308 309 312 314 314 315 315 316 318 316 315 319 322 322 322 322 322 322 321 322 322 323 322 321 321 321 321 320 320 321 320 320 319 316 315 318 318 317 320 321 320 319 320 323 322 323 326 325 323 324 327 327 326 326 326 325 325 325 325 324 323 322 320 319 318 316 315 314 314 314 314 313 312
306 306 305 306 307 307 307 307 307 307 307 307 310 310 308 308 309 310 312 314 316 316 316 316 314 313 314 318 321 322 322 323 322 321 322 321 322 321 320 321 321 321 320 320 321 320 319 321 317 314 315 317 318 320 322 322 319 317 319 321 322 324 325 324 323 327 328 326 327 328 326 327 326 322 322 323 322 320 320 320 320 316 315 315 315 314 313 313
306 305 304 305 306 306 307 307 306 307 307 308 310 309 308 308 308 308 309 312 314 316 316 314 313 313 313 315 319 321 322 323 321 321 322 320 321 321 320 320 321 321 321 320 321 321 319 321 318 314 315 318 320 320 321 322 319 317 319 322 322 321 322 324 323 324 326 326 328 327 327 329 327 321 321 321 320 320 321 322 322 318 316 317 315 314 315 314
305 304 303 304 305 305 306 306 306 307 307 308 309 308 307 308 308 308 308 309 311 313 314 314 313 313 313 314 317 320 322 323 321 321 321 320 321 322 321 320 320 321 321 321 321 321 321 320 317 315 316 318 320 319 319 320 319 318 319 321 322 321 321 324 325 324 322 324 326 324 325 330 327 320 320 321 320 320 319 321 321 318 317 317 315 315 315 313
304 304 302 303 305 305 305 306 306 307 307 307 307 307 308 307 307 307 307 308 309 309 311 314 313 311 311 312 315 318 321 323 322 321 321 320 320 321 321 320 320 321 321 322 322 321 319 317 315 315 316 317 317 315 315 317 319 319 319 320 322 321 320 322 325 325 323 324 322 320 324 329 326 322 322 320 318 316 316 318 318 317 317 316 315 315 313 312
304 303 301 302 305 305 305 306 306 306 306 306 307 307 308 307 306 306 306 307 308 308 310 314 314 312 311 311 313 315 319 321 322 321 321 321 320 320 320 320 320 321 321 322 323 321 318 316 315 315 315 314 314 314 313 315 318 320 320 320 321 321 320 322 322 321 322 324 322 322 325 324 322 325 322 315 314 314 314 316 315 315 315 314 313 313 311 311
302 301 300 302 305 305 305 306 306 305 306 306 306 307 307 307 307 306 306 307 307 308 309 312 314 314 313 312 312 314 317 319 321 322 321 321 320 319 320 320 320 320 321 321 321 320 319 318 315 315 316 316 315 315 315 315 316 318 319 319 320 320 321 322 321 317 320 324 324 324 325 323 321 324 319 313 315 315 312 313 313 313 313 313 312 312 311 311
301 301 300 302 304 305 305 305 305 305 306 306 306 307 307 307 307 307 306 307 307 308 309 310 312 313 314 313 312 313 315 316 319 322 322 321 321 320 319 320 320 320 320 321 318 318 320 318 316 317 318 319 318 318 318 317 315 316 318 319 319 320 320 321 320 319 321 323 323 322 323 322 319 319 318 316 318 316 312 312 312 311 313 314 313 311 311 311
300 300 301 302 304 304 305 305 305 305 305 305 306 306 306 307 307 307 307 307 307 308 308 308 310 312 314 313 312 312 313 313 314 317 320 321 321 321 319 319 320 320 319 319 317 317 320 318 316 318 318 319 320 319 319 318 317 317 318 319 319 320 321 321 320 320 321 321 322 321 320 320 320 318 317 317 318 317 314 312 311 312 312 312 312 311 311 311
301 300 300 302 303 303 304 304 305 305 305 305 305 306 306 306 306 307 307 307 308 307 307 307 307 310 313 313 312 312 312 312 312 313 317 320 320 320 320 319 320 320 318 317 316 318 320 319 318 318 318 318 319 319 318 318 317 317 317 318 319 320 321 322 321 320 320 320 322 321 319 320 320 317 317 317 317 317 314 311 312 312 312 311 311 311 311 311
302 301 300 301 303 303 303 304 304 305 305 305 305 306 306 306 306 307 307 307 308 308 308 308 307 307 309 311 313 313 312 312 313 313 315 318 319 321 321 320 320 319 317 317 317 317 319 319 319 319 319 319 319 318 318 317 317 317 316 317 318 319 320 321 320 319 319 321 321 320 320 321 319 317 318 317 316 314 312 312 312 312 312 311 311 311 311 311
302 301 300 301 303 302 303 304 305 305 306 305 304 305 306 306 306 307 307 307 308 308 308 308 308 307 307 308 311 312 313 314 314 313 313 316 319 320 321 322 320 318 317 318 318 317 318 320 319 319 319 321 320 319 318 317 317 317 316 316 317 318 319 319 319 319 319 320 320 319 321 320 319 320 320 317 315 314 313 313 312 312 312 311 310 311 311 310
302 302 301 301 302 302 303 304 305 305 305 305 304 305 306 306 306 307 307 307 308 308 307 307 308 309 308 307 308 310 312 315 316 314 312 315 319 320 321 322 320 317 317 318 317 317 318 320 320 319 319 320 320 320 319 318 318 317 317 316 316 317 318 318 318 319 319 319 319 319 320 320 319 320 319 316 314 313 312 312 312 312 312 311 311 311 311 311
302 302 302 302 303 303 302 303 304 304 304 304 304 305 305 305 306 307 307 307 308 308 307 306 308 309 309 308 308 308 309 311 314 315 314 314 318 319 318 319 318 318 318 317 317 318 319 320 320 319 319 319 319 320 320 319 318 318 317 317 316 316 317 317 317 317 318 318 318 319 319 319 318 319 319 316 313 310 310 311 312 312 312 311 311 311 311 311
301 302 302 302 303 303 302 303 304 304 304 304 304 305 305 305 306 307 307 308 308 308 308 307 308 309 309 309 308 308 307 307 310 313 314 314 315 315 315 315 316 317 318 317 317 318 319 320 320 319 319 320 319 319 320 319 319 318 317 316 316 316 316 316 316 317 317 317 318 318 318 317 317 319 319 318 316 312 310 311 312 311 311 311 312 312 313 312
Wind_Speed
49 48 47 47 47 45 43 43 44 44 43 44 47 45 46 52 49 47 47 43 40 36 34 33 33 33 32 32 32 32 30 28 29 31 32 32 34 34 33 33 30 26 23 21 21 20 19 18 17 17 15 10 9 9 9 8 5 2 1 2 3 3 2 2 4 4 4 4 5 6 2 2 3 6 4 2 3 4 5 6 6 5 4 6 10 13 15 17
50 49 48 47 48 46 43 44 43 44 43 41 46 47 48 49 47 46 47 44 42 38 35 33 33 34 32 32 33 32 29 26 28 31 31 28 32 35 33 32 29 26 25 23 24 24 24 24 20 17 15 10 8 9 8 7 5 3 1 2 2 1 2 4 8 8 6 5 6 8 3 2 2 5 4 2 5 8 6 6 9 8 7 9 14 15 14 15
50 51 48 47 48 46 44 44 43 45 45 43 44 46 50 54 52 49 46 43 42 39 36 35 34 34 33 33 32 30 28 24 26 32 32 29 30 33 32 32 30 26 26 25 23 23 23 24 20 17 16 11 10 10 8 6 5 3 2 1 1 2 5 7 10 10 8 6 6 9 4 0 2 3 3 2 4 7 8 9 12 13 12 13 16 16 14 15
51 51 49 47 47 46 45 44 43 45 47 46 45 44 51 57 55 52 48 43 42 40 37 36 35 35 34 33 31 29 27 19 22 33 33 32 31 31 30 30 31 30 29 27 24 22 19 21 21 20 17 9 10 11 8 8 6 2 3 2 1 1 3 7 9 9 8 7 5 4 1 1 2 1 2 3 3 4 6 7 12 16 19 17 18 18 15 14
52 52 50 48 47 45 45 45 45 46 48 50 48 45 50 57 55 51 52 47 43 41 38 37 36 36 34 33 31 29 26 10 17 35 34 34 34 32 31 28 31 34 32 29 27 25 18 20 23 20 15 7 8 8 8 13 9 2 6 5 1 2 1 6 7 8 7 6 3 1 2 3 3 3 4 6 5 1 2 4 4 9 18 20 18 20 17 15
54 52 50 49 47 45 45 46 47 47 47 50 50 47 47 50 53 52 53 50 45 42 39 39 38 37 34 32 31 31 27 5 7 32 36 34 34 32 33 29 30 33 34 31 27 23 17 20 21 17 14 7 7 6 6 14 13 4 6 7 1 2 2 6 5 7 6 4 2 4 5 5 5 6 5 8 9 4 2 2 1 3 11 17 15 18 16 15
54 53 51 50 46 45 48 47 47 46 44 50 51 48 46 44 48 50 51 48 46 45 41 41 39 37 32 32 33 30 27 8 3 21 34 35 33 34 36 32 31 32 34 32 22 20 20 21 20 17 13 6 9 9 3 10 14 7 5 8 7 3 5 6 4 5 4 3 3 4 4 5 5 5 3 5 10 8 7 8 4 3 8 13 13 15 14 13
53 53 51 48 46 48 49 46 46 44 42 51 52 48 46 44 48 49 48 45 45 46 43 42 39 37 34 36 38 24 21 13 2 12 29 35 33 36 38 33 32 32 32 29 21 21 24 22 20 17 11 6 11 11 7 9 7 7 6 6 6 5 5 6 3 2 1 0 1 3 5 7 6 4 5 9 13 11 10 11 7 6 11 11 11 14 14 13
51 51 49 47 48 49 49 46 46 44 42 50 53 50 45 46 51 48 47 45 44 46 44 43 39 38 37 39 38 20 17 15 4 10 25 34 36 37 39 35 35 35 32 28 23 23 22 20 20 16 9 8 12 10 10 7 3 8 10 6 5 5 5 4 4 4 4 3 3 3 6 8 5 3 6 10 13 12 12 11 8 9 13 12 11 13 15 15
49 49 48 46 50 48 47 47 45 44 42 49 53 51 44 46 54 50 50 49 44 46 44 42 41 41 41 39 31 14 18 20 9 13 22 32 38 38 39 38 37 37 32 27 25 24 20 18 18 13 7 9 11 10 11 6 3 11 12 5 3 4 6 5 5 7 6 5 6 5 6 9 5 2 3 3 3 5 10 9 7 11 14 13 13 13 14 15
48 49 48 49 54 49 46 45 43 43 44 49 51 49 42 44 56 52 52 54 47 47 45 43 44 44 43 39 26 11 19 25 13 16 23 32 41 41 41 39 38 37 31 27 28 25 18 15 16 12 6 7 8 9 10 6 4 9 8 3 3 6 8 8 7 9 7 5 9 9 6 9 6 3 8 10 5 5 10 9 9 12 14 14 15 15 14 15
48 49 50 52 53 48 47 45 44 44 46 50 48 46 40 40 52 49 47 52 49 48 46 44 47 47 42 32 23 16 23 29 17 18 26 32 40 41 41 38 36 36 32 30 28 26 19 15 18 14 7 9 9 5 7 8 6 6 5 3 5 7 8 11 11 11 9 5 7 6 5 8 7 8 15 18 15 10 9 10 11 12 13 14 16 16 17 17
48 49 50 50 47 44 45 43 44 43 45 51 46 45 41 37 45 45 46 49 49 51 47 46 48 47 40 22 17 18 24 30 21 23 31 32 37 40 37 34 32 32 31 30 25 25 21 15 19 15 9 11 9 4 6 10 7 5 4 3 3 4 6 12 15 12 9 7 6 5 3 6 6 13 22 21 18 15 10 11 13 13 14 14 16 18 18 18
48 51 50 48 45 43 42 40 41 39 41 49 45 42 39 36 41 45 51 52 50 52 48 50 50 45 33 16 16 20 22 27 23 28 35 33 37 37 34 34 31 28 28 28 22 20 18 15 20 16 8 9 9 7 7 8 6 4 4 2 2 3 3 6 12 12 7 5 9 6 3 6 3 4 13 18 17 14 12 13 14 14 15 16 16 18 19 19
50 53 51 46 44 41 39 37 37 35 38 47 45 38 36 35 36 43 54 55 51 50 50 53 50 42 25 11 18 23 24 28 25 31 36 33 38 37 35 37 32 28 26 24 21 17 19 19 19 13 7 10 12 9 5 5 3 3 4 3 3 4 2 1 6 12 7 4 11 8 3 6 5 3 11 16 14 12 12 13 14 15 16 17 17 18 19 18
53 50 47 44 40 36 35 35 36 35 37 49 48 39 35 29 28 41 50 54 52 49 52 53 48 40 21 10 20 26 28 31 28 32 35 33 38 36 34 36 31 26 23 22 23 19 19 19 13 11 11 10 9 6 4 4 3 4 4 3 5 5 3 0 2 9 8 4 9 10 4 1 4 7 13 14 12 12 12 12 14 16 17 18 18 18 18 17
50 44 40 39 37 34 34 33 34 36 38 49 51 45 40 25 23 42 49 51 52 53 55 53 50 37 16 12 23 30 31 31 31 33 34 32 34 34 33 32 28 27 25 23 25 21 17 16 11 9 8 5 5 5 5 5 4 5 4 3 6 7 5 4 0 6 8 5 7 9 8 6 5 6 13 13 12 13 13 13 14 16 18 19 18 18 19 18
45 39 37 36 35 33 33 34 34 35 37 46 50 47 45 28 17 34 49 51 50 52 48 44 44 25 8 17 27 33 35 32 34 34 34 33 31 34 33 29 29 29 27 22 20 21 15 12 10 5 4 5 6 6 5 6 6 6 6 3 4 7 6 5 2 6 10 6 6 8 9 11 10 7 10 12 12 13 13 13 13 15 17 19 19 19 20 20
42 39 37 35 33 31 32 35 35 34 37 44 47 45 46 34 17 19 45 57 46 33 24 28 35 14 6 26 33 36 38 33 36 36 35 35 32 33 29 26 30 30 24 15 13 18 14 8 6 5 6 7 7 8 6 6 8 8 9 6 5 4 5 5 3 7 11 6 6 9 9 10 10 10 13 14 13 14 14 13 14 14 14 17 19 20 20 21
43 40 38 32 30 30 31 35 34 34 38 44 48 43 35 26 14 9 25 51 51 31 26 45 49 23 17 35 36 35 37 33 37 39 37 37 37 33 26 25 27 22 15 10 9 14 14 8 7 7 9 10 10 10 9 8 8 6 7 7 5 3 4 5 4 5 9 5 5 8 9 10 9 9 13 19 18 16 16 16 16 16 15 16 18 19 20 21
43 40 37 31 29 30 33 34 31 32 36 45 51 39 24 17 8 3 4 28 49 36 36 64 54 21 23 40 41 43 42 33 36 41 38 39 39 30 25 26 20 12 11 12 10 10 11 8 7 9 10 11 11 10 11 10 8 7 4 4 4 4 2 2 5 5 5 2 4 6 8 10 11 9 11 16 16 14 18 18 17 18 18 18 19 19 20 19
41 38 35 31 28 28 30 30 26 27 30 40 47 32 23 23 12 5 1 10 35 29 34 60 38 12 28 40 42 49 44 30 31 38 39 41 39 27 23 24 14 9 11 13 10 7 8 7 7 11 10 11 11 10 11 11 8 7 3 1 3 4 2 4 6 5 4 2 3 4 6 9 9 9 11 14 13 14 20 21 20 20 20 22 22 22 22 20
39 36 34 30 28 27 28 27 23 25 26 33 42 31 25 28 19 9 1 3 20 27 38 53 31 22 36 33 37 46 38 29 31 38 44 43 37 29 24 19 12 11 11 11 10 9 7 5 10 14 12 12 12 12 12 9 7 5 2 2 2 4 3 2 4 5 4 3 3 3 5 7 7 7 9 15 19 19 20 22 22 22 23 25 25 23 23 23
36 35 32 30 28 26 28 28 24 23 24 27 36 36 30 30 24 13 3 4 4 19 41 50 37 33 37 34 44 46 34 31 33 38 46 42 33 27 21 17 14 11 10 11 11 8 5 7 14 16 13 13 12 12 11 7 5 5 4 4 3 4 4 3 3 4 3 4 4 3 5 6 7 10 9 13 19 20 22 23 21 22 23 23 23 23 23 24
35 35 32 30 28 28 31 30 25 23 24 25 30 35 34 28 24 15 4 4 4 12 34 40 30 28 34 38 42 40 32 28 31 39 44 40 33 25 16 17 14 9 11 13 10 6 5 12 18 14 12 14 12 11 11 7 4 4 6 6 5 7 4 7 6 3 0 3 2 1 2 4 3 8 8 8 10 14 19 21 21 24 25 25 26 26 25 24
35 34 31 29 27 32 34 27 27 28 25 25 26 34 37 28 24 19 5 4 2 8 24 28 21 24 31 34 37 36 25 19 27 40 41 36 34 26 16 14 10 9 13 11 7 3 5 13 16 12 13 13 11 9 10 8 4 3 5 7 10 11 3 6 6 3 1 3 2 2 2 4 3 3 6 5 6 10 13 15 21 27 27 29 32 31 31 29
35 33 30 27 26 32 33 25 28 31 27 25 25 32 38 30 26 20 4 3 3 6 19 22 20 27 31 35 43 29 13 18 24 33 39 34 32 26 16 12 9 11 14 10 6 3 8 15 14 13 13 10 10 8 8 10 6 2 1 5 12 11 2 5 4 1 1 1 2 3 3 4 6 4 6 6 6 8 10 11 17 26 29 30 32 34 35 35
34 33 30 27 25 28 28 26 29 27 26 27 26 29 33 30 29 18 3 1 4 7 13 14 17 30 35 41 44 25 22 35 22 22 39 34 28 24 14 13 12 12 15 12 6 3 9 15 14 15 13 9 10 9 9 12 7 2 2 1 5 5 1 3 3 2 1 3 1 4 4 2 6 5 5 7 8 9 10 10 12 19 27 30 32 35 36 37
34 32 30 27 26 25 19 21 27 25 25 29 30 30 30 29 24 11 3 2 3 3 8 14 16 26 34 32 28 23 30 31 15 23 38 29 26 19 9 16 16 11 15 10 3 2 6 14 18 15 10 9 9 9 10 10 5 2 2 6 6 4 2 3 2 0 0 1 3 4 6 2 6 4 4 5 7 10 10 8 10 17 25 28 30 33 34 36
33 31 31 29 28 25 17 17 24 23 25 28 28 30 32 28 16 6 1 2 2 0 5 13 15 22 31 21 12 19 22 14 16 29 25 17 20 14 10 19 16 10 9 4 3 1 2 10 16 12 8 9 9 7 7 9 8 6 6 7 6 4 5 4 2 2 1 2 4 7 7 4 4 4 6 5 6 8 8 7 9 15 20 25 28 30 31 32
32 31 31 30 29 26 21 22 24 23 27 31 30 32 30 18 5 3 4 1 2 2 2 9 16 22 29 18 8 17 16 11 20 22 12 11 13 9 12 13 8 7 6 3 3 1 3 8 9 5 5 9 9 3 2 7 13 9 5 5 4 3 3 2 1 2 1 3 3 7 9 7 6 5 4 3 4 6 8 8 8 10 16 22 26 30 31 31
31 31 30 29 28 25 24 27 28 26 31 36 37 35 22 8 2 4 4 3 2 2 3 5 16 21 23 18 13 16 15 13 18 16 11 12 9 10 12 9 9 9 7 8 6 3 6 6 3 4 4 8 8 4 3 4 10 6 5 7 4 2 2 2 2 1 3 3 1 4 5 6 8 7 8 8 5 7 9 9 8 10 12 11 11 18 23 25
31 31 29 28 28 25 25 28 29 29 33 39 37 23 8 4 6 3 3 3 1 1 2 2 12 22 22 17 13 15 14 14 18 18 15 14 11 11 11 11 13 7 6 11 7 4 4 2 1 4 4 8 9 7 4 4 7 7 7 7 5 4 3 4 4 2 3 2 2 2 3 3 4 5 12 13 11 12 13 14 15 14 11 3 3 6 10 14
32 31 30 29 27 25 25 26 27 31 37 38 25 8 4 7 5 3 4 3 1 3 3 3 8 24 23 14 14 16 13 11 18 18 14 13 11 10 9 12 14 5 6 11 5 6 8 2 5 8 6 9 9 8 7 5 5 6 4 4 5 4 3 3 3 2 2 0 2 1 2 3 3 2 8 9 8 11 12 14 16 15 13 9 7 8 9 10
33 31 31 29 27 25 24 23 27 36 42 32 11 2 7 7 3 4 5 4 2 4 5 3 4 19 20 12 14 18 11 10 19 17 12 14 12 12 12 14 18 12 10 11 5 8 11 4 6 8 6 12 11 7 10 9 4 3 2 2 4 3 2 2 2 3 3 2 1 3 3 4 3 6 9 7 6 9 11 11 12 12 13 13 14 16 16 16
33 31 30 28 28 27 25 25 30 40 41 23 4 1 4 1 2 5 5 5 5 6 7 3 3 11 16 10 12 16 8 8 19 15 10 14 12 14 14 11 17 16 12 12 5 6 9 3 5 5 3 13 13 8 14 13 6 3 3 4 3 0 2 2 1 2 3 2 3 4 4 5 3 7 10 10 8 7 10 11 12 13 12 13 16 17 18 20
32 30 28 27 28 29 30 33 36 39 31 11 1 3 1 2 1 4 5 7 7 6 8 5 2 2 9 9 11 16 11 10 16 11 8 11 9 14 15 10 15 17 13 13 5 3 7 2 1 3 3 9 8 7 11 12 7 5 6 6 4 3 2 2 0 1 2 4 3 5 5 4 2 4 6 7 9 7 7 9 11 13 13 13 14 13 12 13
31 29 24 22 26 30 35 37 38 35 21 4 1 2 2 1 1 2 4 5 8 6 5 4 1 2 2 6 10 16 16 13 14 11 9 9 6 13 17 12 17 20 18 18 8 4 8 4 2 1 3 6 4 6 8 7 3 3 4 6 4 0 1 3 2 2 3 5 4 4 7 5 5 4 2 5 9 9 7 8 8 10 13 15 14 11 8 7
31 24 16 15 22 29 36 37 35 27 12 2 3 2 2 3 1 3 7 3 6 6 4 3 2 2 0 3 8 15 17 16 16 13 11 9 7 16 20 14 15 21 22 20 10 6 9 5 1 2 1 4 4 4 8 6 1 1 3 6 4 1 2 4 3 2 2 3 3 2 3 4 6 7 7 9 11 10 9 8 7 10 15 17 15 12 9 8
27 16 7 12 18 25 35 35 27 17 5 2 2 1 2 3 1 4 11 7 3 3 3 4 3 2 1 1 4 9 12 16 19 14 10 12 11 15 22 17 14 20 23 19 11 7 6 5 5 1 1 4 6 6 9 11 7 3 6 8 6 2 2 1 2 2 2 2 3 3 3 4 5 6 9 10 9 9 8 7 7 10 15 17 15 13 11 9
20 9 5 13 17 25 34 26 13 7 2 1 3 3 2 4 2 4 11 10 6 4 3 4 5 3 3 1 2 6 8 12 17 12 8 13 12 10 19 23 18 18 20 14 10 9 6 4 7 5 4 7 7 3 4 7 9 8 7 7 7 5 3 1 4 4 3 3 2 2 3 6 5 2 4 7 6 6 6 7 6 8 12 14 13 11 10 8
13 6 7 16 20 28 28 13 3 4 2 1 4 4 5 5 3 3 7 9 7 5 4 3 5 4 3 1 2 4 5 7 14 13 8 14 16 11 20 32 27 22 18 11 8 7 5 5 7 6 4 4 2 2 3 1 4 7 5 5 6 6 5 6 6 4 3 2 1 1 3 6 5 3 2 2 6 8 7 8 9 9 10 11 10 9 8 6
10 9 12 18 23 26 17 4 3 4 1 2 5 6 7 5 3 4 4 5 4 3 3 2 4 4 3 2 2 3 2 4 12 14 10 14 16 12 21 35 31 22 16 10 6 5 5 5 6 5 3 2 4 2 3 5 1 6 7 7 7 8 9 7 3 3 3 3 3 2 5 5 4 4 5 4 7 10 7 8 10 10 8 7 6 6 6 6
15 14 13 17 22 19 9 1 4 4 2 4 5 5 6 4 4 5 4 3 3 2 1 1 2 3 4 4 5 3 2 1 9 12 8 9 12 13 24 37 32 19 14 12 10 9 6 5 8 8 4 2 3 1 2 2 4 7 9 10 10 11 10 5 1 2 2 5 6 5 6 5 3 4 5 4 3 5 4 4 6 6 5 5 5 5 5 6
16 11 10 15 18 13 4 1 3 5 4 5 5 6 6 4 5 8 7 5 4 2 1 1 2 2 5 6 4 2 2 3 3 6 4 5 8 11 23 36 30 18 17 19 19 13 6 5 9 10 10 9 8 7 8 8 6 3 5 11 13 12 10 7 2 1 4 7 7 6 7 3 2 5 5 4 2 1 3 3 4 5 5 5 5 6 7 8
10 5 5 9 10 8 2 2 2 5 5 5 5 6 6 4 5 10 10 6 5 4 1 2 3 1 6 9 5 2 1 3 2 1 1 4 4 5 22 36 30 24 22 23 24 15 3 4 9 9 11 11 7 5 6 7 6 5 6 10 11 10 9 7 4 6 9 6 4 8 9 7 7 6 4 5 5 5 4 6 6 6 7 7 7 8 9 10
6 4 6 6 4 4 3 3 3 5 7 7 4 5 7 6 5 8 7 5 7 7 2 1 2 1 5 9 5 4 4 1 2 3 4 2 2 4 22 31 26 25 22 19 25 16 2 5 11 10 13 11 5 7 10 11 12 12 12 12 11 12 12 10 9 13 11 5 7 14 14 15 15 8 6 7 8 6 6 9 11 10 9 10 10 11 12 12
4 5 9 8 4 3 4 3 3 3 6 7 3 4 8 7 6 6 5 5 7 7 3 1 4 3 2 4 3 4 7 3 1 1 4 2 2 6 16 19 18 24 21 14 18 13 3 5 11 10 12 10 7 10 12 12 13 14 16 16 16 17 18 17 17 18 13 9 14 19 16 19 18 8 7 9 8 9 11 12 13 12 11 11 12 13 14 14
5 7 11 8 2 3 7 8 5 3 5 5 2 4 7 8 8 6 5 5 6 7 5 2 4 6 4 2 1 4 8 4 2 5 1 3 4 7 11 10 9 17 17 10 10 9 4 5 8 9 9 8 9 11 12 13 12 12 16 18 17 17 19 21 20 19 16 14 18 20 17 19 15 7 8 12 15 17 16 14 13 14 14 14 14 15 15 16
6 7 9 6 1 5 8 8 6 4 4 4 2 2 4 7 9 7 6 7 6 6 8 6 5 7 6 4 3 3 4 1 1 6 5 3 3 4 8 8 5 9 11 8 7 9 9 8 8 9 7 6 9 10 10 13 13 12 15 18 17 17 17 19 19 18 15 15 20 20 17 18 12 6 8 13 17 15 12 14 18 19 17 15 16 18 17 16
8 7 10 7 2 6 8 5 4 3 3 5 4 3 3 4 7 7 7 11 10 8 10 9 6 5 5 6 6 6 6 5 3 4 7 8 5 2 1 4 7 10 10 6 7 9 10 8 7 7 6 8 11 11 9 9 9 10 13 17 19 19 18 18 19 17 15 15 18 17 16 16 8 6 8 9 12 13 14 18 22 21 20 20 20 20 19 17
9 9 11 9 3 6 7 3 3 3 3 4 5 5 4 3 5 5 5 9 13 13 13 11 6 4 4 6 9 10 11 12 9 3 2 9 11 6 7 7 2 9 11 8 6 7 9 8 6 7 9 9 9 10 8 6 5 9 13 19 23 23 19 16 15 17 17 16 14 14 17 14 6 7 10 9 8 10 15 22 24 23 24 25 25 23 21 20
Wind_Direction
237 235 234 233 233 230 227 227 226 225 229 231 221 210 207 218 226 220 211 206 203 203 199 196 197 197 196 196 195 195 195 194 194 193 198 203 207 209 204 202 200 195 192 185 184 184 178 177 183 185 179 174 182 192 213 235 252 282 229 210 243 247 289 27 56 56 110 105 97 109 163 203 131 146 181 190 175 175 136 149 170 162 164 120 121 155 166 174
234 233 233 232 233 229 224 225 225 223 225 229 222 210 204 213 221 218 212 206 202 200 197 195 196 198 197 198 197 195 195 195 195 197 202 202 205 209 204 200 198 194 188 179 182 183 177 177 179 182 172 161 170 172 183 208 228 261 253 227 256 125 31 28 57 60 61 71 95 94 85 283 84 127 165 209 201 186 169 178 177 164 169 142 140 165 176 181
232 231 231 230 231 227 222 222 222 222 223 226 224 211 202 209 218 219 213 206 203 201 195 194 197 198 200 200 197 195 193 190 193 200 204 201 203 207 204 198 191 186 180 171 174 181 179 180 181 174 164 162 174 172 168 182 210 250 247 238 266 107 78 55 62 66 50 45 80 83 77 260 72 110 150 244 238 199 196 192 178 170 178 164 159 180 187 186
230 228 229 228 228 225 220 221 221 220 223 225 224 215 203 207 215 212 208 207 203 201 196 194 196 198 201 200 196 192 183 182 203 206 204 203 203 201 199 195 192 189 177 165 169 177 176 175 174 171 170 168 165 172 175 179 190 204 232 249 31 323 56 71 67 68 62 50 54 69 100 121 79 112 189 243 274 237 226 201 189 187 189 180 170 185 193 190
228 226 227 226 225 223 220 222 221 218 220 224 225 217 207 211 215 206 204 208 203 199 197 195 196 198 199 197 193 182 170 173 221 210 205 205 203 197 190 188 196 196 182 174 176 175 172 172 171 170 177 170 149 172 181 184 194 178 230 244 22 313 39 89 76 71 69 55 30 25 6 11 13 280 238 235 252 235 73 94 169 189 192 189 178 186 194 194
227 225 225 225 222 221 221 221 220 216 216 221 225 220 212 215 216 206 203 207 204 199 197 195 195 197 196 194 187 175 171 167 235 209 207 204 202 193 185 182 185 187 184 183 180 180 181 175 174 174 178 174 157 189 184 181 196 205 225 215 167 316 92 105 90 81 69 46 21 25 12 344 321 287 249 229 238 246 19 48 65 86 179 189 180 188 199 203
224 222 223 223 220 219 219 216 214 211 211 218 224 222 217 216 213 206 201 202 202 199 196 194 193 194 190 183 177 173 185 208 311 209 206 203 199 187 180 179 177 178 183 181 179 191 187 175 180 179 178 180 170 186 142 148 180 196 225 208 199 221 126 120 105 90 75 48 29 11 344 299 289 290 307 251 245 251 282 279 257 108 158 181 182 193 206 210
222 221 221 220 217 217 215 209 206 207 210 215 222 223 219 215 210 204 199 199 199 198 195 192 191 189 184 175 169 171 197 212 299 206 201 200 193 181 180 181 178 176 177 177 179 187 181 180 185 178 178 188 170 173 137 121 166 198 224 218 190 188 144 131 144 134 155 243 327 320 294 283 275 269 301 283 266 257 257 264 247 167 164 181 192 200 205 210
220 219 218 217 214 213 210 206 205 206 210 213 219 223 219 215 211 205 199 199 199 198 195 190 188 183 181 175 169 173 199 195 215 200 196 196 185 178 183 181 177 174 170 173 180 183 181 184 183 177 176 165 160 159 158 153 181 200 215 221 158 182 202 170 183 212 214 219 257 275 270 279 277 261 285 281 272 257 237 240 231 183 177 185 194 203 205 209
217 216 214 212 211 210 205 204 206 207 210 212 216 220 218 214 212 207 201 200 199 198 195 188 184 179 176 172 167 174 190 182 190 193 191 192 182 177 181 181 180 176 173 176 178 181 184 185 181 172 149 142 155 153 164 183 183 191 210 229 166 211 231 198 202 236 225 214 229 232 264 274 265 223 256 296 317 230 209 214 213 191 189 189 192 204 208 209
213 213 210 207 207 207 201 202 207 207 210 210 213 217 215 211 211 207 199 198 197 195 194 186 179 177 174 171 170 165 176 179 178 184 188 189 183 179 180 182 181 176 179 181 178 183 190 194 184 169 154 152 155 143 156 162 124 168 187 200 217 242 247 225 217 234 235 240 227 224 265 269 248 196 225 247 262 204 192 203 210 199 196 194 193 201 205 207
210 209 207 203 203 201 199 202 204 206 210 209 212 216 215 214 212 205 195 193 193 193 193 183 176 176 173 174 178 162 170 182 176 175 184 186 183 181 182 182 180 180 184 182 180 188 188 188 183 171 171 161 136 123 170 170 130 139 165 189 214 226 245 231 222 222 221 236 214 205 279 262 228 220 240 248 241 219 199 201 208 204 201 199 196 200 205 206
206 204 202 196 193 194 196 199 200 201 206 208 212 215 217 220 212 201 194 194 192 190 188 180 176 173 171 175 179 164 172 183 180 175 178 183 182 180 181 177 178 186 186 179 177 181 177 180 186 171 153 156 136 119 175 174 152 136 178 225 204 203 239 221 212 206 203 213 184 161 277 253 225 234 240 237 219 206 196 196 205 206 204 204 200 201 208 208
200 199 197 190 187 189 190 193 196 196 198 204 210 211 213 221 216 201 193 194 191 188 185 178 174 173 172 171 173 168 169 177 181 177 175 179 178 174 176 172 175 184 183 177 172 180 187 187 185 170 146 157 141 124 139 154 159 151 171 220 218 199 253 214 183 168 170 193 175 166 258 248 267 252 218 205 194 190 185 193 205 205 202 205 205 204 210 213
197 195 190 186 186 186 188 192 198 200 197 201 207 208 208 217 215 196 188 191 191 187 180 175 173 172 171 165 171 168 164 170 174 176 174 173 172 169 172 175 176 177 174 175 173 184 195 185 175 160 129 136 136 133 137 145 173 186 163 181 222 211 255 313 156 161 167 188 181 187 265 245 241 117 142 164 173 179 188 197 203 205 203 202 206 208 212 219
191 187 182 183 186 189 193 196 202 206 200 201 207 208 207 210 200 188 187 188 189 185 176 173 173 171 167 161 171 168 165 167 166 171 174 172 171 167 169 174 173 171 172 181 183 180 178 176 167 145 135 136 142 149 153 157 179 201 192 188 200 198 195 313 208 191 181 165 188 208 243 255 224 167 149 166 177 178 194 207 206 205 204 201 205 210 213 218
183 182 182 182 185 189 191 191 197 202 200 200 206 209 209 207 183 182 188 190 188 182 175 174 172 171 171 162 166 168 166 166 167 169 170 172 171 163 161 164 165 171 173 176 186 183 168 167 159 144 152 155 171 179 170 177 174 182 210 232 196 187 182 158 247 225 195 179 199 215 233 254 270 182 164 179 187 184 196 212 218 212 204 202 204 209 215 217
181 183 182 178 180 182 182 185 187 193 197 196 202 210 208 207 185 176 183 187 182 176 176 174 170 169 184 171 167 171 169 166 168 167 165 169 167 159 157 157 158 161 156 152 169 173 159 156 154 145 179 176 186 197 187 179 173 176 190 226 212 184 190 184 152 191 186 193 213 209 227 240 255 238 196 192 187 190 198 202 215 220 207 199 204 211 216 218
182 182 179 178 181 181 181 184 183 189 192 190 197 205 204 210 224 189 176 175 174 171 170 168 169 166 179 175 171 173 173 166 164 164 166 167 164 160 157 155 158 155 146 143 160 163 146 138 162 172 181 184 194 199 198 190 186 185 176 188 223 196 194 195 141 168 176 182 219 217 235 239 238 241 235 229 209 200 208 206 207 218 213 200 204 214 217 220
180 179 178 176 175 176 178 178 180 189 191 190 192 194 198 205 224 229 179 173 175 174 162 166 173 176 167 166 165 166 167 165 164 165 167 165 163 162 158 155 158 156 153 150 156 162 154 157 189 186 174 178 189 195 209 223 219 214 181 175 212 224 211 189 144 171 181 180 217 223 244 253 244 236 237 239 230 212 212 214 208 209 213 207 205 215 220 223
178 176 174 170 165 167 172 174 178 186 191 193 191 187 188 189 184 253 206 174 177 177 167 170 173 176 163 160 163 164 160 160 167 168 167 165 164 162 160 159 158 167 167 141 124 146 170 189 189 175 169 174 189 202 214 231 246 256 232 180 198 210 229 118 117 159 171 165 237 237 250 254 251 247 240 236 231 218 212 212 212 209 210 213 212 217 222 228
176 174 172 168 165 169 173 175 181 185 188 193 191 185 184 191 193 176 29 163 172 174 170 171 168 149 156 159 167 166 154 153 166 169 169 166 168 167 162 166 168 165 154 137 125 143 190 209 170 161 170 179 194 209 218 230 243 251 253 255 217 188 159 82 113 148 145 149 241 251 263 259 254 251 247 240 234 229 217 212 215 216 214 216 217 219 221 225
174 174 174 172 171 175 177 177 180 185 189 191 190 187 187 198 208 188 126 91 161 166 169 170 163 148 156 157 163 161 152 155 163 169 173 169 171 172 163 169 171 152 153 161 162 170 194 195 162 163 175 187 196 210 220 226 235 239 213 224 235 190 187 146 149 159 152 206 262 314 295 277 266 258 252 241 236 236 227 222 223 221 219 221 221 222 219 218
170 173 175 176 178 180 182 181 178 184 191 191 191 193 196 203 209 198 164 27 130 165 170 170 164 160 161 157 163 163 155 161 163 167 174 171 168 169 166 171 167 153 167 170 159 164 167 156 164 168 178 190 195 206 214 216 223 229 205 203 222 214 197 120 138 171 170 228 258 342 311 281 245 235 244 240 233 234 231 229 230 224 222 225 225 222 220 218
168 171 175 180 183 182 183 181 175 178 183 184 187 191 197 201 203 201 170 28 5 158 167 171 167 164 162 158 166 163 152 159 164 165 173 173 167 164 165 171 171 164 168 160 151 165 158 157 170 176 181 191 196 204 207 204 205 218 212 207 233 250 211 124 136 166 296 264 232 85 295 287 241 220 235 233 219 225 226 225 229 226 220 223 224 221 219 218
167 170 173 178 180 176 179 177 167 167 168 167 171 183 193 199 199 200 167 47 325 153 159 168 168 168 166 159 159 156 150 159 165 165 170 173 170 164 158 167 179 173 158 150 157 185 166 164 174 182 182 188 202 211 202 196 205 212 194 195 227 251 238 119 133 153 215 260 225 130 203 270 313 272 258 242 212 217 217 218 225 225 221 220 223 222 221 220
170 171 171 173 170 167 169 163 159 161 156 155 164 180 190 197 199 197 158 42 249 159 155 164 168 172 171 161 157 156 148 144 153 168 171 170 170 168 162 166 179 173 153 145 177 186 159 169 179 184 183 189 202 207 192 188 205 237 195 195 215 231 222 107 114 203 223 97 220 191 174 278 291 264 248 237 230 230 218 216 221 224 225 224 225 226 226 226
171 172 171 170 167 166 164 155 155 157 151 152 159 171 180 190 195 187 114 45 171 140 150 158 168 169 165 162 162 155 140 144 149 176 173 169 169 172 177 173 168 165 159 158 180 165 156 174 181 179 185 196 196 199 187 184 201 254 350 33 181 198 200 135 127 241 248 68 248 207 130 288 275 243 226 218 222 236 228 222 222 221 222 223 226 229 230 232
171 171 171 169 168 171 170 161 161 161 157 152 150 153 158 166 174 156 60 248 152 125 154 154 163 160 153 159 165 147 142 151 152 163 170 172 171 175 182 172 164 154 164 167 160 153 166 178 180 178 190 199 190 196 190 184 198 192 87 62 75 70 49 94 100 262 217 115 227 191 144 218 273 246 207 209 219 228 228 224 228 225 222 221 224 229 233 235
173 173 172 173 172 173 172 163 165 168 167 162 158 157 150 145 146 130 175 229 113 172 171 153 156 151 149 156 166 150 145 145 136 147 161 167 164 164 140 152 155 141 156 147 92 127 127 166 180 188 204 196 178 194 203 179 161 131 104 82 72 61 56 57 45 56 33 263 213 186 170 175 276 249 192 205 222 211 210 219 228 230 228 227 228 230 234 235
172 173 174 177 176 176 172 157 160 168 163 160 160 158 145 129 122 170 173 113 87 228 240 152 148 148 154 158 153 153 144 129 140 144 146 145 151 152 132 139 145 130 141 125 106 172 142 163 185 181 191 187 164 162 293 159 149 131 119 118 94 70 64 65 64 76 217 246 183 183 182 179 228 256 215 234 246 201 202 213 222 229 232 232 230 230 232 233
168 171 172 175 174 176 174 158 158 163 156 151 151 149 139 119 214 194 149 107 121 198 269 170 153 152 159 158 149 154 144 140 152 149 149 156 160 167 160 162 159 149 166 170 159 164 164 182 180 108 170 191 161 122 37 142 154 144 144 146 132 132 140 187 185 187 226 239 197 171 175 205 234 259 259 258 252 217 210 213 225 236 233 225 216 220 222 223
165 167 167 171 171 172 171 161 160 163 156 151 149 147 137 153 184 165 121 150 147 143 268 240 158 156 160 160 154 152 145 149 158 156 159 162 165 175 177 170 161 153 167 165 150 133 149 286 210 150 191 197 181 165 158 169 171 167 159 158 164 162 172 199 189 211 224 251 323 105 103 263 265 264 250 245 236 227 222 221 230 241 243 226 150 192 199 202
161 164 163 166 169 171 170 168 171 169 159 154 151 147 159 166 167 110 117 168 83 118 171 281 163 160 165 168 159 154 150 154 158 158 162 162 167 181 176 169 171 156 128 152 155 161 168 220 194 177 170 177 191 186 154 123 153 174 159 159 187 180 178 190 178 200 192 81 322 146 139 223 213 263 257 246 236 236 235 225 224 234 245 248 240 232 218 214
159 164 163 161 164 168 170 171 174 170 160 153 147 157 167 166 156 136 143 159 142 142 175 264 176 162 168 170 165 166 160 153 159 159 166 169 172 179 174 177 182 171 149 160 168 175 180 198 180 170 154 166 178 170 138 122 143 194 116 145 221 215 145 144 167 164 137 92 275 215 238 243 230 291 286 263 243 240 240 235 226 232 241 243 243 243 241 244
158 161 161 160 162 162 161 160 164 164 158 151 136 162 164 160 132 153 152 149 158 153 155 207 249 173 170 165 167 173 160 142 159 161 169 174 176 180 178 183 183 177 169 165 150 173 182 180 160 151 148 177 176 158 157 157 156 175 180 191 207 34 98 144 205 85 106 256 242 182 254 290 283 291 276 248 241 232 226 229 227 230 234 237 242 243 243 247
156 157 156 159 165 161 155 153 157 162 161 155 114 130 116 351 113 134 129 142 154 142 145 175 267 176 168 164 166 168 151 140 159 160 164 175 181 182 179 181 184 185 177 164 153 179 162 88 201 155 141 182 167 123 161 174 153 150 191 184 121 38 29 127 202 34 149 254 256 168 214 257 234 267 266 239 242 235 215 211 210 214 217 222 233 239 240 240
151 150 144 152 166 165 156 153 158 163 163 172 234 121 70 23 143 95 84 131 145 134 147 169 103 19 168 168 166 163 155 153 165 162 161 176 186 180 180 181 185 188 178 164 159 152 140 95 330 221 145 169 147 115 162 191 177 159 173 161 140 72 190 156 183 205 189 236 267 207 206 212 200 222 242 222 231 233 218 203 195 198 202 212 227 233 228 216
147 140 128 143 163 168 162 157 159 159 155 200 210 154 81 87 109 27 33 81 150 141 144 142 88 22 19 173 167 167 166 163 165 163 165 181 186 179 184 184 182 188 180 168 162 152 152 135 95 272 239 152 150 164 180 188 199 346 159 170 192 223 166 171 181 174 173 213 262 248 205 222 220 209 201 204 215 223 218 202 192 191 195 207 221 221 214 215
142 126 115 145 154 167 165 156 154 153 156 213 167 80 75 93 129 27 34 45 113 118 130 140 122 92 64 267 190 176 174 164 165 172 174 179 178 177 186 186 178 184 182 174 167 149 148 140 131 165 281 161 179 201 192 183 175 175 180 181 192 183 107 135 199 189 167 187 246 253 244 260 245 213 205 204 203 210 205 192 198 200 198 205 210 207 209 221
139 110 130 152 151 161 157 148 147 154 160 158 93 69 96 94 90 38 31 38 62 50 55 123 132 119 107 186 215 193 181 163 168 178 172 177 182 181 188 187 178 176 179 179 176 165 157 141 135 145 182 184 193 196 169 181 183 180 185 182 181 175 127 146 217 211 195 200 204 215 262 270 262 249 222 207 188 177 168 156 169 186 185 188 190 195 209 221
132 93 140 154 154 154 148 136 149 156 127 135 126 119 118 96 79 62 29 31 52 33 13 98 128 119 109 129 247 218 195 170 175 180 178 186 193 190 186 185 179 173 177 179 174 158 115 110 128 136 170 175 153 86 67 54 184 182 200 195 176 175 171 190 215 200 188 221 140 128 277 273 271 326 347 192 142 126 122 119 125 139 154 166 180 195 210 220
103 93 132 150 153 152 146 122 135 141 90 114 128 118 112 103 96 100 63 37 48 31 6 69 125 128 132 153 199 225 240 191 184 184 182 188 196 190 178 180 177 174 180 178 160 133 91 107 131 112 96 63 51 58 36 22 88 182 209 205 184 195 198 194 196 150 173 215 157 181 255 266 282 334 3 31 99 108 113 122 130 140 151 167 190 205 215 223
98 96 122 150 157 157 158 143 140 153 119 98 117 127 118 110 116 116 99 85 81 55 29 45 101 126 145 140 158 196 332 270 197 194 186 186 194 179 171 178 179 178 184 177 168 175 161 141 140 130 136 120 83 112 204 219 210 202 204 201 199 204 196 182 109 84 213 214 167 183 236 239 274 322 356 10 66 101 120 150 160 163 165 181 195 208 222 224
106 91 114 151 161 163 162 27 121 149 141 122 138 148 129 116 133 134 127 125 123 88 24 330 12 78 134 127 131 153 22 7 206 195 178 171 184 171 171 180 181 180 189 180 167 168 163 151 157 158 169 174 173 189 195 194 202 197 182 192 202 203 190 188 187 162 232 209 170 201 239 239 306 306 315 322 307 215 142 162 192 192 191 205 206 207 214 214
116 95 120 151 167 172 180 346 130 154 161 153 153 158 149 135 137 138 131 133 148 141 80 339 334 10 134 131 117 131 139 1 3 300 251 161 171 168 171 178 183 185 185 174 161 155 135 170 177 180 185 185 183 170 136 134 152 166 176 185 195 199 194 191 183 208 226 214 197 235 243 251 256 250 268 288 269 245 200 184 204 211 210 217 209 200 202 202
125 139 155 156 163 184 203 248 212 167 161 162 154 159 159 145 136 144 141 142 155 153 140 265 259 309 136 141 130 138 154 61 28 327 312 173 124 144 169 177 185 182 173 162 160 157 111 182 179 191 198 191 161 127 130 143 167 182 182 180 185 189 194 200 207 218 217 202 237 238 230 242 244 210 198 240 236 232 221 200 205 212 215 219 212 203 198 194
124 150 168 160 140 184 185 189 209 169 151 165 155 138 154 150 139 145 149 154 159 159 161 214 205 228 198 151 121 133 147 114 72 274 324 280 145 130 163 178 183 172 163 161 170 159 93 185 182 187 197 189 158 146 151 162 178 185 184 187 189 186 191 204 214 220 208 195 235 237 224 237 243 207 196 225 215 217 222 208 203 205 210 219 215 206 199 193
105 124 160 169 136 134 127 119 144 146 133 155 143 122 153 162 160 151 137 146 169 179 184 216 202 201 219 218 70 138 156 147 186 189 267 278 198 154 161 173 184 176 165 162 177 163 147 185 178 176 192 193 171 161 161 167 177 187 190 194 194 190 197 207 215 222 216 214 237 242 237 243 240 200 202 218 215 221 218 199 193 198 206 212 208 201 195 193
91 110 155 172 87 125 127 120 140 145 130 153 175 143 150 163 165 155 145 153 162 177 188 208 197 178 191 192 161 190 203 355 111 173 180 229 219 177 174 166 167 187 177 163 165 171 182 188 167 163 187 206 192 183 174 172 177 186 192 196 196 196 203 211 218 223 217 222 238 243 250 253 236 200 219 215 203 201 192 184 194 202 205 201 197 196 190 187
84 102 140 145 100 132 142 136 139 139 147 163 170 160 167 187 172 152 155 168 170 174 184 195 192 169 176 189 193 219 244 293 347 113 156 198 216 23 76 172 164 168 172 165 161 173 190 189 156 151 189 214 205 193 178 169 177 191 197 197 196 199 204 208 216 220 210 219 234 238 249 252 224 192 235 220 180 171 175 190 201 206 205 198 195 196 190 188
78 92 129 139 122 136 145 144 142 161 191 185 177 169 162 165 158 149 157 173 182 189 185 179 174 159 172 200 210 218 228 246 265 322 120 219 246 301 0 357 275 180 170 165 168 177 183 179 157 165 200 216 195 174 161 148 174 209 207 199 197 201 205 208 221 227 216 214 222 227 238 240 193 176 222 224 193 185 190 198 204 207 205 201 200 200 199 208